This demonstration page uses our WeatherBlox Daily Observations layout. Learn more.

Left ArrowRight Arrow

38.83388, -104.82136

Hourly Observations for January 3, 2021

Temp ( °F °C ) Dew Point ( °F °C ) Humidity (%) Winds ( mph kmh ) Pressure ( in mb ) Visibility ( mi km ) Precip ( " mm )
12:58 am 00:58 Clear 31 -0.5 5 -15.2 32 32 S 12 19 29.59 1002 10 16 0.00 0.00
1:58 am 01:58 Clear 32 -0.2 3 -16.1 29 29 SSW 15 24 29.62 1003 10 16 0.00 0.00
2:01 am 02:01 Clear 32 0 3 -16 29 29 SSE 14 22 29.61 1003 10 16 0.00 0.00
2:58 am 02:58 Clear 30 -0.9 3 -16.2 31 31 S 8 13 29.62 1003 10 16 0.00 0.00
3:58 am 03:58 Clear 31 -0.8 2 -16.4 30 30 S 9 15 29.62 1003 10 16 0.00 0.00
4:58 am 04:58 Clear 31 -0.8 2 -16.7 29 29 S 10 17 29.62 1003 10 16 0.00 0.00
5:58 am 05:58 Clear 32 0 1 -17 27 27 SSW 14 22 29.61 1003 10 16 0.00 0.00
6:58 am 06:58 Clear 36 2 1 -17.3 23 23 SW 10 17 29.61 1003 10 16 0.00 0.00
7:58 am 07:58 Sunny 33 0.3 4 -15.7 29 29 Calm 29.62 1003 10 16 0.00 0.00
8:58 am 08:58 Sunny 39 4.1 3 -16.2 21 21 Calm 29.60 1002 10 16 0.00 0.00
9:58 am 09:58 Sunny 42 5.8 6 -14.6 22 22 SSE 5 7 29.59 1002 10 16 0.00 0.00
10:58 am 10:58 Sunny 44 6.7 10 -12.4 24 24 SE 7 11 29.57 1001 10 16 0.00 0.00
11:58 am 11:58 Sunny 49 9.5 9 -13 19 19 E 5 7 29.50 999 10 16 0.00 0.00
12:58 pm 12:58 Sunny 45 7.2 9 -12.9 23 23 Calm 29.51 999 10 16 0.00 0.00
1:58 pm 13:58 Mostly Sunny 44 6.9 10 -12 25 25 S 3 6 29.49 999 10 16 0.00 0.00
2:58 pm 14:58 Mostly Cloudy 42 5.5 11 -11.5 28 28 Calm 29.51 999 10 16 0.00 0.00
3:58 pm 15:58 Mostly Cloudy 41 4.8 13 -10.7 32 32 Calm 29.54 1000 10 16 0.00 0.00
4:58 pm 16:58 Mostly Cloudy 41 5.2 15 -9.7 34 34 E 5 7 29.56 1001 10 16 0.00 0.00
5:58 pm 17:58 Mostly Cloudy 40 4.7 15 -9.4 36 36 WNW 8 13 29.57 1001 10 16 0.00 0.00
6:58 pm 18:58 Clear 41 4.9 14 -10 33 33 NNE 8 13 29.57 1001 10 16 0.00 0.00
7:58 pm 19:58 Clear 41 4.9 13 -10.7 32 32 SSW 8 13 29.59 1002 10 16 0.00 0.00
8:58 pm 20:58 Clear 39 3.9 14 -10.1 36 36 NW 8 13 29.61 1003 10 16 0.00 0.00
9:58 pm 21:58 Clear 37 2.8 14 -9.9 39 39 Calm 29.64 1004 10 16 0.00 0.00
10:58 pm 22:58 Clear 37 2.8 12 -10.9 36 36 NNW 3 6 29.65 1004 10 16 0.00 0.00
11:58 pm 23:58 Clear 38 3.1 11 -11.4 34 34 SSW 14 22 29.64 1004 10 16 0.00 0.00

Powered by AerisWeather